QPF
0.01 0.01 0.01 0.01 0.01 0.01 0.01 0.01 0.02 0.02 0.02 0.02 0.03 0.04 0.05 0.05 0.04 0.04 0.04 0.04 0.04 0.04 0.04 0.04 0.03 0.03 0.03 0.02 0.02 0.02 0.02 0.03 0.03 0.03 0.02 0.01 0.02 0.02 0.03 0.03 0.02 0.02 0.02
0.01 0.01 0.01 0.01 0.01 0.01 0.01 0.01 0.01 0.02 0.02 0.03 0.03 0.04 0.04 0.05 0.06 0.06 0.06 0.06 0.05 0.05 0.04 0.04 0.04 0.03 0.03 0.03 0.03 0.03 0.03 0.03 0.03 0.03 0.02 0.02 0.02 0.02 0.02 0.02 0.02 0.02 0.02
0.00 0.01 0.01 0.01 0.01 0.01 0.01 0.02 0.02 0.02 0.02 0.03 0.04 0.04 0.05 0.05 0.05 0.06 0.06 0.06 0.07 0.07 0.06 0.05 0.05 0.05 0.04 0.04 0.03 0.03 0.03 0.03 0.03 0.03 0.03 0.02 0.02 0.02 0.02 0.02 0.02 0.01 0.01
0.00 0.00 0.00 0.00 0.01 0.01 0.02 0.02 0.02 0.02 0.03 0.03 0.03 0.04 0.05 0.05 0.05 0.05 0.05 0.06 0.06 0.07 0.07 0.06 0.06 0.06 0.06 0.04 0.04 0.04 0.03 0.04 0.04 0.04 0.03 0.03 0.03 0.02 0.02 0.02 0.02 0.02 0.02
0.00 0.00 0.00 0.00 0.00 0.01 0.01 0.02 0.02 0.02 0.02 0.03 0.03 0.03 0.04 0.05 0.05 0.05 0.05 0.05 0.05 0.06 0.06 0.07 0.07 0.08 0.08 0.07 0.06 0.06 0.06 0.06 0.06 0.06 0.05 0.04 0.04 0.03 0.04 0.05 0.04 0.04 0.03
0.00 0.00 0.00 0.00 0.00 0.00 0.01 0.01 0.01 0.02 0.02 0.02 0.02 0.03 0.03 0.03 0.04 0.04 0.04 0.05 0.05 0.05 0.06 0.07 0.08 0.10 0.09 0.09 0.07 0.07 0.06 0.06 0.06 0.06 0.06 0.05 0.04 0.04 0.04 0.05 0.05 0.04 0.03
0.00 0.00 0.00 0.00 0.00 0.00 0.00 0.00 0.01 0.01 0.01 0.02 0.02 0.03 0.03 0.03 0.04 0.04 0.04 0.04 0.05 0.05 0.06 0.06 0.07 0.08 0.08 0.08 0.08 0.08 0.07 0.06 0.06 0.06 0.06 0.05 0.04 0.04 0.04 0.04 0.03 0.03 0.03
0.01 0.00 0.00 0.00 0.00 0.00 0.00 0.00 0.01 0.01 0.01 0.01 0.02 0.02 0.02 0.03 0.03 0.03 0.04 0.04 0.04 0.05 0.05 0.05 0.06 0.06 0.06 0.05 0.05 0.05 0.05 0.05 0.05 0.05 0.05 0.05 0.04 0.04 0.04 0.05 0.06 0.04 0.03
0.01 0.01 0.01 0.01 0.01 0.01 0.01 0.01 0.01 0.01 0.02 0.02 0.02 0.02 0.03 0.03 0.03 0.04 0.04 0.03 0.04 0.04 0.04 0.05 0.05 0.05 0.05 0.05 0.04 0.03 0.04 0.04 0.04 0.04 0.04 0.04 0.04 0.04 0.05 0.06 0.06 0.05 0.04
0.00 0.01 0.01 0.01 0.01 0.01 0.01 0.01 0.01 0.02 0.02 0.02 0.02 0.03 0.03 0.03 0.04 0.03 0.03 0.03 0.03 0.03 0.04 0.04 0.05 0.05 0.05 0.05 0.04 0.03 0.03 0.03 0.03 0.03 0.03 0.03 0.02 0.02 0.03 0.05 0.06 0.06 0.05
0.01 0.01 0.01 0.01 0.01 0.01 0.01 0.01 0.01 0.02 0.02 0.02 0.02 0.03 0.03 0.03 0.04 0.04 0.04 0.03 0.03 0.03 0.03 0.03 0.03 0.04 0.04 0.04 0.04 0.04 0.04 0.04 0.03 0.03 0.03 0.02 0.02 0.02 0.02 0.02 0.03 0.04 0.04
0.01 0.01 0.01 0.01 0.01 0.01 0.01 0.01 0.01 0.01 0.02 0.02 0.02 0.02 0.02 0.03 0.03 0.03 0.04 0.04 0.04 0.04 0.04 0.03 0.03 0.03 0.02 0.03 0.03 0.04 0.04 0.04 0.04 0.04 0.03 0.03 0.03 0.02 0.02 0.02 0.02 0.02 0.03
0.00 0.01 0.01 0.01 0.01 0.01 0.01 0.01 0.01 0.01 0.01 0.01 0.01 0.02 0.02 0.02 0.02 0.02 0.02 0.03 0.03 0.03 0.03 0.03 0.03 0.02 0.01 0.01 0.01 0.02 0.02 0.03 0.03 0.03 0.03 0.03 0.03 0.03 0.03 0.03 0.03 0.03 0.03
0.00 0.00 0.01 0.01 0.01 0.01 0.01 0.01 0.01 0.01 0.01 0.01 0.01 0.01 0.01 0.01 0.01 0.01 0.01 0.01 0.02 0.01 0.01 0.01 0.01 0.01 0.01 0.01 0.01 0.01 0.01 0.01 0.02 0.02 0.02 0.02 0.03 0.03 0.03 0.03 0.03 0.03 0.03
0.00 0.00 0.00 0.00 0.00 0.00 0.00 0.00 0.00 0.00 0.01 0.01 0.01 0.01 0.01 0.01 0.01 0.02 0.02 0.01 0.01 0.01 0.01 0.01 0.01 0.01 0.01 0.01 0.01 0.01 0.01 0.01 0.02 0.02 0.02 0.02 0.02 0.02 0.02 0.02 0.02 0.02 0.03
0.00 0.00 0.00 0.00 0.00 0.00 0.00 0.01 0.01 0.00 0.00 0.00 0.00 0.01 0.01 0.01 0.01 0.01 0.01 0.01 0.01 0.01 0.01 0.01 0.01 0.01 0.01 0.01 0.01 0.01 0.01 0.01 0.01 0.01 0.01 0.02 0.02 0.02 0.02 0.02 0.02 0.02 0.02
0.00 0.00 0.00 0.00 0.00 0.00 0.01 0.01 0.01 0.01 0.00 0.00 0.00 0.00 0.01 0.01 0.01 0.01 0.01 0.01 0.01 0.01 0.01 0.01 0.01 0.01 0.01 0.01 0.01 0.01 0.01 0.01 0.01 0.01 0.01 0.01 0.01 0.02 0.02 0.02 0.01 0.01 0.01
0.00 0.00 0.00 0.00 0.00 0.01 0.01 0.01 0.01 0.01 0.01 0.01 0.01 0.00 0.00 0.00 0.00 0.01 0.01 0.01 0.01 0.01 0.01 0.01 0.01 0.01 0.01 0.01 0.01 0.01 0.01 0.01 0.01 0.01 0.01 0.01 0.01 0.01 0.01 0.01 0.01 0.01 0.01
0.01 0.01 0.01 0.01 0.01 0.01 0.01 0.01 0.01 0.01 0.01 0.01 0.01 0.01 0.01 0.01 0.00 0.01 0.01 0.01 0.01 0.01 0.01 0.01 0.01 0.01 0.01 0.01 0.01 0.01 0.01 0.01 0.01 0.01 0.01 0.01 0.01 0.01 0.01 0.01 0.01 0.01 0.01
0.01 0.02 0.02 0.02 0.02 0.02 0.02 0.02 0.02 0.02 0.02 0.01 0.01 0.01 0.01 0.01 0.01 0.01 0.01 0.01 0.01 0.01 0.01 0.01 0.01 0.01 0.01 0.01 0.01 0.01 0.01 0.01 0.01 0.01 0.01 0.01 0.02 0.02 0.01 0.01 0.01 0.02 0.01
0.02 0.02 0.02 0.03 0.03 0.03 0.03 0.03 0.02 0.02 0.02 0.02 0.02 0.02 0.02 0.02 0.01 0.01 0.01 0.01 0.01 0.01 0.01 0.01 0.01 0.01 0.01 0.01 0.01 0.01 0.01 0.01 0.01 0.01 0.01 0.02 0.02 0.02 0.02 0.02 0.02 0.02 0.02
0.02 0.02 0.02 0.03 0.03 0.03 0.03 0.03 0.03 0.02 0.02 0.02 0.02 0.02 0.02 0.02 0.01 0.01 0.01 0.01 0.01 0.01 0.01 0.01 0.01 0.01 0.01 0.02 0.02 0.02 0.02 0.02 0.01 0.02 0.02 0.02 0.02 0.02 0.02 0.02 0.02 0.02 0.01
0.01 0.02 0.02 0.02 0.02 0.03 0.03 0.03 0.03 0.02 0.02 0.02 0.02 0.02 0.02 0.02 0.02 0.01 0.01 0.01 0.01 0.01 0.01 0.01 0.01 0.01 0.01 0.01 0.02 0.02 0.02 0.02 0.02 0.02 0.02 0.02 0.02 0.02 0.02 0.02 0.02 0.02 0.02
0.01 0.01 0.01 0.02 0.02 0.02 0.02 0.02 0.02 0.02 0.02 0.02 0.02 0.02 0.02 0.02 0.02 0.02 0.02 0.02 0.01 0.01 0.01 0.01 0.01 0.01 0.01 0.01 0.02 0.02 0.02 0.02 0.02 0.02 0.02 0.02 0.02 0.02 0.02 0.02 0.02 0.02 0.02
0.01 0.01 0.01 0.01 0.01 0.01 0.01 0.01 0.02 0.02 0.02 0.02 0.02 0.02 0.02 0.02 0.02 0.01 0.01 0.02 0.01 0.01 0.01 0.01 0.01 0.01 0.01 0.01 0.01 0.02 0.02 0.02 0.02 0.02 0.02 0.02 0.02 0.02 0.02 0.02 0.02 0.02 0.02
0.01 0.01 0.01 0.01 0.01 0.01 0.01 0.01 0.01 0.01 0.01 0.02 0.02 0.02 0.02 0.01 0.01 0.01 0.01 0.01 0.01 0.01 0.01 0.01 0.01 0.01 0.01 0.01 0.02 0.02 0.02 0.02 0.02 0.02 0.02 0.03 0.03 0.02 0.02 0.02 0.02 0.02 0.02
MSLP
1014.31 1015.01 1015.68 1016.34 1017.00 1017.67 1018.34 1019.03 1019.72 1020.39 1021.03 1021.63 1022.18 1022.69 1023.16 1023.61 1024.06 1024.52 1025.00 1025.50 1026.01 1026.51 1026.98 1027.41 1027.79 1028.12 1028.42 1028.72 1029.05 1029.45 1029.92 1030.48 1031.11 1031.77 1032.43 1033.04 1033.53 1033.88 1034.08 1034.12 1034.02 1033.82 1033.57
1013.59 1014.28 1014.95 1015.62 1016.30 1017.00 1017.72 1018.45 1019.19 1019.90 1020.57 1021.20 1021.76 1022.28 1022.76 1023.22 1023.70 1024.19 1024.72 1025.27 1025.84 1026.39 1026.91 1027.38 1027.77 1028.11 1028.40 1028.67 1028.98 1029.33 1029.78 1030.31 1030.92 1031.58 1032.25 1032.86 1033.39 1033.78 1034.03 1034.12 1034.08 1033.94 1033.74
1012.82 1013.50 1014.18 1014.86 1015.56 1016.29 1017.05 1017.83 1018.60 1019.34 1020.04 1020.69 1021.26 1021.78 1022.26 1022.74 1023.22 1023.75 1024.31 1024.92 1025.54 1026.16 1026.73 1027.25 1027.68 1028.04 1028.34 1028.62 1028.91 1029.25 1029.67 1030.18 1030.77 1031.42 1032.08 1032.71 1033.25 1033.67 1033.96 1034.11 1034.13 1034.05 1033.90
1011.95 1012.64 1013.32 1014.02 1014.74 1015.50 1016.30 1017.11 1017.93 1018.71 1019.43 1020.09 1020.67 1021.19 1021.68 1022.16 1022.66 1023.20 1023.80 1024.45 1025.13 1025.80 1026.44 1027.01 1027.50 1027.91 1028.25 1028.55 1028.86 1029.20 1029.61 1030.11 1030.68 1031.31 1031.96 1032.58 1033.13 1033.58 1033.90 1034.09 1034.17 1034.15 1034.06
1010.96 1011.65 1012.34 1013.05 1013.80 1014.60 1015.44 1016.30 1017.15 1017.97 1018.73 1019.40 1020.00 1020.53 1021.03 1021.51 1022.02 1022.59 1023.22 1023.90 1024.62 1025.35 1026.05 1026.69 1027.24 1027.71 1028.10 1028.45 1028.79 1029.16 1029.58 1030.07 1030.64 1031.25 1031.88 1032.49 1033.04 1033.50 1033.84 1034.08 1034.20 1034.24 1034.21
1009.84 1010.54 1011.23 1011.96 1012.74 1013.58 1014.46 1015.37 1016.27 1017.13 1017.93 1018.64 1019.26 1019.82 1020.33 1020.82 1021.35 1021.93 1022.58 1023.30 1024.06 1024.83 1025.58 1026.27 1026.88 1027.42 1027.88 1028.28 1028.67 1029.08 1029.53 1030.04 1030.60 1031.21 1031.83 1032.42 1032.97 1033.43 1033.79 1034.06 1034.23 1034.33 1034.36
1008.64 1009.32 1010.02 1010.77 1011.58 1012.46 1013.38 1014.34 1015.30 1016.21 1017.05 1017.81 1018.47 1019.05 1019.58 1020.11 1020.65 1021.25 1021.92 1022.65 1023.44 1024.24 1025.02 1025.76 1026.43 1027.03 1027.55 1028.02 1028.48 1028.94 1029.43 1029.97 1030.54 1031.15 1031.77 1032.36 1032.90 1033.36 1033.74 1034.04 1034.25 1034.39 1034.48
1007.40 1008.06 1008.76 1009.52 1010.35 1011.26 1012.23 1013.24 1014.25 1015.21 1016.10 1016.90 1017.60 1018.22 1018.79 1019.34 1019.91 1020.53 1021.22 1021.96 1022.76 1023.58 1024.39 1025.16 1025.88 1026.52 1027.11 1027.65 1028.16 1028.69 1029.23 1029.82 1030.42 1031.05 1031.68 1032.27 1032.81 1033.28 1033.68 1034.00 1034.25 1034.44 1034.58
1006.18 1006.81 1007.50 1008.26 1009.11 1010.05 1011.06 1012.10 1013.14 1014.14 1015.07 1015.91 1016.65 1017.31 1017.91 1018.50 1019.10 1019.75 1020.45 1021.21 1022.02 1022.85 1023.67 1024.46 1025.21 1025.90 1026.54 1027.14 1027.73 1028.32 1028.93 1029.57 1030.22 1030.88 1031.53 1032.14 1032.69 1033.17 1033.58 1033.93 1034.21 1034.45 1034.64
1005.06 1005.65 1006.31 1007.06 1007.92 1008.87 1009.89 1010.95 1012.00 1013.02 1013.97 1014.83 1015.60 1016.29 1016.93 1017.55 1018.18 1018.86 1019.58 1020.36 1021.18 1022.02 1022.86 1023.67 1024.44 1025.16 1025.85 1026.51 1027.17 1027.83 1028.51 1029.22 1029.93 1030.64 1031.32 1031.95 1032.52 1033.02 1033.45 1033.82 1034.14 1034.41 1034.65
1004.05 1004.60 1005.23 1005.97 1006.82 1007.76 1008.76 1009.81 1010.85 1011.86 1012.79 1013.65 1014.42 1015.13 1015.80 1016.45 1017.12 1017.83 1018.59 1019.40 1020.24 1021.09 1021.94 1022.77 1023.57 1024.33 1025.06 1025.79 1026.51 1027.25 1028.00 1028.77 1029.55 1030.31 1031.03 1031.70 1032.30 1032.82 1033.27 1033.67 1034.01 1034.32 1034.60
1003.19 1003.69 1004.30 1005.01 1005.82 1006.73 1007.70 1008.70 1009.69 1010.65 1011.55 1012.38 1013.14 1013.85 1014.53 1015.22 1015.92 1016.67 1017.47 1018.31 1019.18 1020.07 1020.94 1021.80 1022.63 1023.42 1024.21 1024.98 1025.77 1026.57 1027.40 1028.24 1029.08 1029.90 1030.67 1031.38 1032.01 1032.56 1033.03 1033.45 1033.82 1034.16 1034.47
1002.46 1002.92 1003.49 1004.16 1004.94 1005.79 1006.69 1007.62 1008.54 1009.42 1010.25 1011.03 1011.76 1012.46 1013.15 1013.86 1014.61 1015.40 1016.25 1017.13 1018.05 1018.97 1019.87 1020.76 1021.62 1022.46 1023.29 1024.12 1024.96 1025.83 1026.72 1027.62 1028.52 1029.39 1030.21 1030.95 1031.62 1032.20 1032.71 1033.15 1033.55 1033.91 1034.26
1001.84 1002.27 1002.80 1003.42 1004.14 1004.92 1005.74 1006.57 1007.40 1008.19 1008.94 1009.65 1010.34 1011.02 1011.71 1012.44 1013.22 1014.06 1014.95 1015.89 1016.84 1017.80 1018.75 1019.67 1020.57 1021.44 1022.31 1023.18 1024.08 1025.00 1025.94 1026.89 1027.84 1028.76 1029.62 1030.41 1031.11 1031.73 1032.27 1032.75 1033.18 1033.58 1033.96
1001.28 1001.68 1002.17 1002.75 1003.40 1004.10 1004.82 1005.56 1006.28 1006.97 1007.64 1008.29 1008.93 1009.59 1010.28 1011.03 1011.84 1012.71 1013.64 1014.61 1015.61 1016.60 1017.57 1018.52 1019.45 1020.35 1021.25 1022.16 1023.10 1024.06 1025.04 1026.03 1027.02 1027.98 1028.88 1029.71 1030.46 1031.12 1031.70 1032.23 1032.70 1033.15 1033.57
1000.72 1001.10 1001.56 1002.08 1002.67 1003.29 1003.93 1004.56 1005.19 1005.80 1006.39 1006.98 1007.58 1008.22 1008.91 1009.67 1010.50 1011.39 1012.35 1013.34 1014.35 1015.35 1016.34 1017.31 1018.25 1019.17 1020.09 1021.02 1021.98 1022.96 1023.97 1025.00 1026.01 1027.01 1027.94 1028.82 1029.61 1030.33 1030.98 1031.57 1032.11 1032.61 1033.09
1000.12 1000.47 1000.90 1001.38 1001.90 1002.46 1003.02 1003.58 1004.13 1004.67 1005.22 1005.77 1006.34 1006.97 1007.65 1008.41 1009.24 1010.13 1011.08 1012.07 1013.07 1014.06 1015.04 1016.00 1016.94 1017.86 1018.79 1019.73 1020.70 1021.70 1022.73 1023.78 1024.82 1025.84 1026.81 1027.73 1028.58 1029.37 1030.09 1030.76 1031.39 1031.98 1032.54
999.41 999.76 1000.16 1000.60 1001.08 1001.58 1002.09 1002.59 1003.10 1003.61 1004.12 1004.65 1005.21 1005.83 1006.50 1007.25 1008.06 1008.93 1009.84 1010.79 1011.75 1012.70 1013.65 1014.58 1015.50 1016.41 1017.34 1018.29 1019.26 1020.28 1021.32 1022.38 1023.44 1024.49 1025.50 1026.47 1027.39 1028.25 1029.06 1029.83 1030.56 1031.25 1031.91
998.57 998.92 999.30 999.73 1000.18 1000.64 1001.12 1001.60 1002.09 1002.58 1003.09 1003.62 1004.18 1004.79 1005.45 1006.16 1006.93 1007.75 1008.60 1009.48 1010.37 1011.26 1012.15 1013.04 1013.93 1014.83 1015.75 1016.70 1017.69 1018.71 1019.77 1020.85 1021.93 1023.01 1024.06 1025.08 1026.06 1027.00 1027.90 1028.78 1029.62 1030.43 1031.20
997.61 997.96 998.34 998.75 999.19 999.65 1000.12 1000.60 1001.09 1001.59 1002.11 1002.65 1003.21 1003.81 1004.44 1005.11 1005.82 1006.56 1007.33 1008.12 1008.93 1009.74 1010.57 1011.41 1012.27 1013.15 1014.07 1015.03 1016.04 1017.08 1018.16 1019.26 1020.36 1021.46 1022.55 1023.61 1024.65 1025.67 1026.66 1027.63 1028.59 1029.52 1030.41
996.55 996.91 997.30 997.72 998.16 998.62 999.10 999.59 1000.10 1000.62 1001.15 1001.70 1002.26 1002.84 1003.44 1004.06 1004.69 1005.35 1006.02 1006.72 1007.43 1008.17 1008.93 1009.73 1010.56 1011.45 1012.38 1013.36 1014.39 1015.47 1016.57 1017.69 1018.82 1019.94 1021.06 1022.15 1023.24 1024.31 1025.37 1026.43 1027.48 1028.51 1029.51
995.47 995.85 996.25 996.67 997.12 997.59 998.08 998.59 999.12 999.66 1000.20 1000.75 1001.30 1001.86 1002.41 1002.96 1003.52 1004.09 1004.67 1005.28 1005.91 1006.58 1007.29 1008.07 1008.90 1009.79 1010.75 1011.77 1012.84 1013.95 1015.09 1016.23 1017.38 1018.52 1019.65 1020.76 1021.86 1022.97 1024.07 1025.18 1026.30 1027.41 1028.50
994.45 994.84 995.25 995.68 996.14 996.62 997.12 997.64 998.17 998.71 999.26 999.80 1000.33 1000.84 1001.35 1001.84 1002.33 1002.82 1003.32 1003.85 1004.42 1005.05 1005.74 1006.51 1007.35 1008.28 1009.28 1010.34 1011.46 1012.61 1013.77 1014.94 1016.10 1017.24 1018.36 1019.47 1020.57 1021.68 1022.80 1023.94 1025.09 1026.24 1027.38
993.59 993.99 994.40 994.83 995.28 995.76 996.25 996.76 997.29 997.82 998.34 998.86 999.36 999.83 1000.29 1000.72 1001.15 1001.58 1002.02 1002.51 1003.05 1003.65 1004.34 1005.12 1006.00 1006.96 1008.00 1009.11 1010.27 1011.45 1012.63 1013.81 1014.97 1016.10 1017.21 1018.30 1019.38 1020.47 1021.58 1022.71 1023.86 1025.02 1026.19
992.98 993.36 993.76 994.17 994.60 995.06 995.53 996.01 996.51 997.00 997.50 997.98 998.43 998.87 999.28 999.67 1000.06 1000.45 1000.86 1001.33 1001.85 1002.46 1003.16 1003.97 1004.87 1005.87 1006.95 1008.09 1009.27 1010.46 1011.66 1012.83 1013.98 1015.09 1016.17 1017.23 1018.28 1019.34 1020.42 1021.53 1022.66 1023.81 1024.97
992.66 993.01 993.37 993.75 994.15 994.56 994.99 995.43 995.88 996.33 996.78 997.21 997.63 998.02 998.40 998.76 999.12 999.50 999.91 1000.37 1000.90 1001.52 1002.24 1003.06 1003.99 1005.00 1006.10 1007.25 1008.43 1009.62 1010.80 1011.96 1013.07 1014.16 1015.21 1016.24 1017.26 1018.30 1019.35 1020.43 1021.53 1022.66 1023.79
Thickness
5523 5522 5521 5520 5519 5518 5517 5517 5516 5514 5513 5511 5510 5508 5506 5505 5503 5500 5498 5496 5494 5493 5491 5489 5488 5486 5484 5481 5478 5475 5471 5468 5466 5466 5463 5460 5456 5453 5450 5447 5444 5441 5437
5514 5513 5511 5510 5509 5509 5508 5508 5507 5505 5504 5503 5501 5499 5498 5497 5495 5492 5490 5489 5487 5485 5484 5482 5481 5479 5476 5473 5470 5467 5464 5461 5458 5456 5453 5449 5446 5443 5440 5437 5435 5432 5428
5504 5503 5502 5501 5500 5499 5498 5498 5497 5496 5495 5494 5492 5491 5489 5488 5486 5484 5482 5480 5478 5476 5475 5474 5472 5470 5468 5465 5462 5459 5456 5453 5450 5447 5444 5440 5436 5433 5429 5427 5424 5422 5419
5494 5493 5492 5491 5490 5489 5488 5488 5487 5486 5485 5484 5483 5481 5480 5479 5477 5475 5472 5471 5469 5468 5467 5465 5464 5461 5460 5456 5453 5450 5448 5444 5441 5437 5434 5430 5426 5422 5418 5415 5413 5411 5408
5483 5483 5482 5481 5480 5479 5478 5477 5477 5476 5475 5474 5473 5471 5469 5468 5466 5464 5463 5461 5459 5458 5457 5455 5454 5451 5449 5447 5444 5441 5438 5435 5431 5428 5424 5419 5416 5411 5407 5404 5401 5399 5397
5473 5472 5471 5469 5469 5468 5467 5467 5466 5466 5465 5463 5462 5461 5459 5458 5457 5455 5453 5451 5450 5448 5447 5446 5444 5441 5439 5437 5435 5432 5430 5426 5422 5417 5413 5409 5407 5402 5397 5393 5389 5386 5385
5461 5460 5459 5458 5458 5457 5456 5455 5455 5454 5454 5452 5451 5450 5449 5447 5446 5445 5443 5441 5439 5438 5437 5435 5433 5431 5428 5425 5424 5422 5419 5415 5412 5408 5404 5400 5396 5392 5386 5382 5378 5375 5374
5448 5448 5447 5447 5446 5445 5444 5444 5444 5443 5442 5441 5440 5439 5437 5436 5435 5434 5432 5430 5428 5427 5425 5423 5422 5420 5417 5414 5412 5410 5407 5404 5401 5397 5394 5390 5385 5381 5376 5372 5369 5366 5363
5436 5435 5434 5434 5433 5433 5432 5432 5432 5431 5430 5429 5428 5426 5425 5425 5424 5422 5420 5418 5416 5415 5413 5411 5410 5408 5405 5402 5400 5398 5396 5393 5389 5386 5382 5379 5375 5370 5365 5361 5357 5353 5352
5423 5422 5421 5420 5420 5420 5420 5419 5418 5418 5417 5416 5415 5414 5413 5411 5411 5409 5408 5406 5404 5403 5401 5399 5398 5396 5393 5390 5388 5385 5383 5381 5377 5375 5371 5368 5363 5359 5354 5350 5346 5341 5338
5408 5407 5407 5406 5406 5406 5405 5404 5404 5403 5403 5402 5401 5400 5399 5397 5397 5396 5395 5393 5391 5390 5388 5387 5385 5384 5382 5380 5377 5374 5372 5368 5365 5362 5359 5355 5351 5347 5343 5338 5334 5329 5325
5392 5393 5392 5392 5392 5391 5390 5390 5389 5388 5387 5387 5386 5386 5384 5383 5382 5381 5381 5379 5378 5376 5375 5374 5373 5371 5370 5368 5365 5363 5359 5356 5352 5348 5345 5342 5339 5335 5331 5326 5322 5317 5314
5377 5378 5378 5377 5377 5377 5376 5375 5374 5373 5372 5372 5371 5371 5370 5368 5367 5366 5366 5365 5364 5362 5362 5361 5360 5358 5356 5354 5352 5349 5346 5342 5339 5336 5333 5330 5326 5322 5318 5313 5309 5305 5302
5362 5363 5363 5363 5362 5361 5361 5361 5360 5359 5358 5358 5356 5356 5355 5353 5352 5352 5351 5350 5349 5348 5347 5347 5346 5344 5342 5340 5338 5335 5332 5329 5326 5323 5320 5317 5312 5308 5304 5299 5295 5292 5289
5347 5348 5348 5348 5347 5347 5346 5345 5345 5345 5344 5344 5343 5342 5340 5340 5340 5339 5337 5337 5335 5334 5333 5332 5330 5329 5328 5325 5323 5320 5317 5314 5311 5308 5305 5302 5298 5295 5291 5286 5281 5278 5275
5332 5332 5332 5333 5332 5332 5331 5330 5329 5329 5329 5329 5329 5328 5328 5328 5328 5327 5325 5324 5322 5321 5318 5316 5315 5314 5313 5311 5308 5306 5302 5299 5297 5294 5291 5288 5284 5281 5277 5272 5268 5264 5262
5316 5317 5316 5317 5317 5316 5315 5315 5314 5314 5314 5314 5314 5314 5314 5313 5313 5312 5311 5310 5308 5306 5303 5301 5300 5300 5299 5297 5294 5292 5289 5286 5282 5279 5277 5274 5270 5267 5263 5259 5255 5251 5249
5300 5300 5301 5301 5302 5301 5300 5299 5299 5298 5298 5298 5298 5298 5298 5297 5296 5295 5294 5294 5291 5289 5286 5286 5285 5285 5284 5283 5281 5278 5275 5272 5269 5266 5262 5259 5255 5252 5249 5245 5242 5238 5236
5284 5286 5286 5286 5286 5286 5285 5284 5284 5283 5283 5283 5282 5282 5281 5281 5280 5278 5277 5274 5273 5272 5270 5270 5269 5269 5268 5267 5265 5263 5261 5258 5255 5252 5249 5245 5242 5238 5235 5232 5229 5226 5223
5270 5271 5271 5271 5271 5271 5271 5270 5269 5268 5268 5267 5267 5266 5265 5263 5262 5261 5259 5258 5257 5257 5256 5254 5254 5253 5252 5251 5249 5248 5246 5244 5242 5239 5236 5233 5229 5225 5222 5219 5216 5213 5210
5255 5255 5256 5256 5257 5257 5257 5256 5256 5254 5254 5253 5253 5251 5251 5249 5248 5246 5245 5244 5242 5241 5241 5240 5239 5237 5236 5236 5235 5233 5232 5230 5228 5226 5223 5220 5217 5213 5210 5207 5204 5201 5198
5240 5241 5242 5243 5243 5243 5243 5242 5241 5240 5240 5239 5239 5237 5237 5234 5232 5231 5231 5229 5228 5226 5226 5224 5224 5223 5222 5221 5220 5220 5219 5217 5216 5214 5211 5208 5205 5201 5198 5195 5192 5189 5186
5228 5229 5229 5230 5230 5230 5229 5229 5228 5227 5226 5225 5224 5223 5222 5220 5219 5218 5217 5216 5214 5213 5211 5210 5209 5209 5208 5207 5206 5205 5205 5204 5203 5201 5199 5196 5193 5189 5186 5183 5180 5177 5175
5216 5216 5217 5217 5217 5216 5216 5216 5215 5215 5214 5213 5212 5211 5210 5208 5207 5206 5204 5203 5202 5201 5199 5197 5197 5196 5196 5194 5193 5193 5192 5191 5189 5188 5186 5184 5181 5178 5175 5172 5169 5167 5164
5204 5205 5205 5205 5204 5204 5203 5203 5203 5202 5202 5201 5200 5199 5198 5196 5195 5194 5193 5191 5190 5189 5188 5187 5186 5185 5185 5184 5183 5182 5181 5179 5177 5175 5173 5171 5169 5167 5163 5161 5158 5156 5153
5193 5194 5194 5193 5192 5191 5191 5190 5190 5190 5189 5189 5188 5187 5185 5184 5184 5183 5182 5180 5179 5178 5178 5177 5176 5176 5175 5174 5173 5172 5171 5170 5168 5165 5163 5161 5159 5157 5154 5151 5149 5145 5142